Content
SEND FEEDBACK

Daily
Averages
Monthly
Summary
United States of America

WEIPPE, IDAHO


Home > North America > United States > Idaho
Elevation: 988 meters     Latitude: 46 30N     Longitude: 115 48W

WEATHER
 
SELECT A DAY
Number of Records: 164,924;   Date Range: 1/1/95 - 10/24/14
 
SHARE

PRINT THIS DATA

[ ← Previous Day ]
WEATHER ALMANAC - 13 FEBRUARY, 2013
[ Next Day → ]
[ °F ]   °C
Weather ElementAverageHighLow
Temperature3.3 °C6.1 °C (12:52 pm)2.2 °C (1:52 am)
Dewpoint2.4 °C5 °C (1:52 pm)1.1 °C (1:52 am)
Humidity94.3 %97 % (8:52 am)89 % (2:52 am)
Barometer1026.8 hPa1030.1 hPa (11:52 pm)1024.7 hPa (5:52 am)
Wind Speed0.3 km/h5.6 km/h (7:52 am)
Weather ElementAverage
Wind DirectionNNE (14.8 °)

Weather ElementTotal
Precipitation1.78 mm
Heating Degree Days14.2 (Base 18.3)
Averaged from 23 records on 13 February, 2013
WEATHER CONDITIONS BREAKOUT
WIND DIRECTION BREAKOUT
WEATHER BY HOUR - 13 FEBRUARY, 2013
[ °F ]   °C
Local TimeTemperatureDewpointHumidityBarometerVisibilityWind DirectionWind SpeedGust SpeedPrecipitationEventsConditions
1:52 AM2.2 °C1.1 °C93 %1025.4 hPaCalm
2:52 AM2.8 °C1.1 °C89 %1025.7 hPaCalm
3:52 AM2.2 °C1.1 °C93 %1025.4 hPaCalm
4:52 AM2.2 °C1.1 °C93 %1025.1 hPaCalm
5:52 AM2.2 °C1.1 °C93 %1024.7 hPaCalm
6:52 AM2.2 °C1.1 °C93 %1025.1 hPaCalm
7:52 AM2.2 °C1.1 °C93 %1025.4 hPaNNW (340°)5.6 km/h
8:52 AM2.2 °C1.7 °C97 %1026.1 hPaCalm
9:52 AM2.8 °C1.7 °C93 %1026.8 hPaCalm0.25 mm
10:52 AM3.3 °C2.2 °C93 %1026.8 hPaCalm0.25 mm
11:52 AM5 °C3.9 °C93 %1026.8 hPaCalm0.25 mm
12:52 PM6.1 °C4.4 °C89 %1026.1 hPaCalm
1:52 PM5.6 °C5 °C96 %1026.1 hPaCalm0.76 mm
2:52 PM5 °C4.4 °C96 %1026.1 hPaCalm0.25 mm
3:52 PM5 °C3.9 °C93 %1026.1 hPaCalm
4:52 PM3.9 °C3.3 °C96 %1026.8 hPaCalm
5:52 PM3.9 °C3.3 °C96 %1027.1 hPaCalm
6:52 PM3.3 °C2.8 °C97 %1027.8 hPaCalm
7:52 PM3.3 °C2.8 °C97 %1027.8 hPaCalm
8:52 PM3.3 °C2.8 °C97 %1028.4 hPaCalm
9:52 PM2.8 °C2.2 °C96 %1028.8 hPaCalm
10:52 PM2.8 °C2.2 °C96 %1029.5 hPaCalm
11:52 PM2.2 °C1.7 °C97 %1030.1 hPaCalm
Hourly data recorded from KP69, located 0 kilometers away from Weippe, Idaho







STORIES FROM OUR PARTNERS